Location: Stillwell
(40.4602°N, 82.0928°W)
Time: 14:22:03
(UTC-04:00)

Lacrosse 5 rocket - Pass Details

Date: 25 May 2018
Orbit: 463 x 637 km, 57.0° (Epoch: 27 May)

Event Time Altitude Azimuth Distance (km) Brightness Sun altitude
Rises 23:37:14 0° 310° (NW) 2,810 6.1 -23.5°
Reaches altitude 10° 23:39:37 10° 304° (NW) 1,876 4.8 -23.7°
Enters shadow 23:43:05 40° 256° (WSW) 817 2.2 -24.0°
